CZ-6A DEB

Satellite information

Favourite Embed

Satellite Type and Status

DEBRISIN ORBIT

Key statistics

Satellite CZ-6A DEB at a glance.

Uptime

1072

Days in orbit

Revolutions

≈ 14.6

Per day

Orbit

SSO

Sun Synchronous Orbit

Inclination

98.7

Latest

Satellite identification and parameters

Extended collection of information and parameters for CZ-6A DEB.

Object identification

Identified? True

Debris? True

Object name: CZ-6A DEB

International designator: 2022-151AF

Object number (NORAD): 54288

Object ID (CCSDS): 54288

Country: PEOPLES REPUBLIC OF CHINA (PRC)

Current information (Y/N): Y

RCS size: SMALL

Orbital parameters

Period: 98.535 minutes

Inclination: 98.6853 deg

SMA: 7066.775 km

Apoapsis: 784.776 km

Periapsis: 592.505 km

RAAN: 1.4366 deg

Eccentricy: 0.01360385

Argument of periapsis: 254.771 deg

Mean anomaly: 103.8414 deg

Mean motion: 14.61405868 rev/day

Mean motion (dot): 0.00008426 rev/day2

B* drag term: 0.0015018603 1/REarth

Two-line elements (TLE)

Creation date: Oct. 18, 2025, 2:17 a.m.

Reference frame: TEME

Reference center: EARTH

Epoch: Oct. 17, 2025, 10:18 p.m. UTC

TLE line 0: 0 CZ-6A DEB

TLE line 1: 1 54288U 22151AF 25290.92947757 .00008426 00000-0 15019-2 0 9994

TLE line 2: 2 54288 98.6853 1.4366 0136039 254.7710 103.8414 14.61405868155179

Live tracking on map

Real-time ground track for satellite CZ-6A DEB.

In-orbit conjunctions

A list of the most updated potential collisions computed for object CZ-6A DEB.

Target Orbit TCA Probability of collision Miss distance Type
COSMOS 158 LEO 2025-10-02 06:15:44 0.0004459148 211.0 (m) PAYLOAD
COSMOS 1954 LEO 2025-02-02 03:59:53 0.0002329206 668.0 (m) PAYLOAD

Associated space launch

Chinese satellite reported for atmospheric/ocean/environmental/spatial parameter research purposes, details TBD.

CZ-6A DEB was lifted into orbit during the mission ‘Long March 6A | Yunhai 3’, on board a Long March 6A space rocket.

The launch took place on Nov. 11, 2022, 10:52 p.m. from Launch Complex 9A.

For more information about the launch, click the button.

Launch to space Long March 6A | Yunhai 3
Long March 6A | Yunhai 3

Agency: N/A

Status: Launch Successful

Launch date: Nov. 11, 2022, 10:52 p.m. UTC

Rocket: Long March 6A

Launch pad: Launch Complex 9A

Location: Taiyuan Satellite Launch Center, People's Republic of China

...

Latest news about this satellite

There are no fresh news available about this satellite. Check back as we update our databases every day.


Newsletter sign-up

Weekly statistics, charts and insights to help you stay on top of the space industry.